Terminal Aerodrome Forecast
Issued by NWS Sterling, VA

Current Version | Previous Version | Text Only | Print | Product List | Glossary Off
Versions: 1 2 3 4 5 6 7 8 9 10 11 12 13 14 15 16 17 18 19 20 21 22 23 24 25 26 27 28

000
FTUS41 KLWX 200529
TAFDCA
TAF
KDCA 200529Z 2006/2106 33012KT P6SM SKC
     FM202200 32008KT P6SM FEW040 SCT250
     FM210200 34004KT P6SM SCT130=

USA.gov is the U.S. government's official web portal to all federal, state and local government web resources and services.